User: anonymous   Login
Location: Oshawa
(43.9000°N, 78.8670°W)
Time: 06:19:20
(UTC-04:00)
Language:

ITAMSAT 1 - Orbit

View from above orbital plane
View from above orbital plane
View from above satellite
View from above satellite

Ground track
Ground track

The orbit data is extracted from the following two-line orbital elements,

1 22826U 93061D   17232.86088342  .00000004  00000-0  18918-4 0  9998
2 22826  98.8126 199.3331 0009755 128.2918 231.9143 14.30332535246826
Epoch (UTC): 20 August 2017 20:39:40
Eccentricity: 0.0009755
inclination: 98.8126°
perigee height: 783 km
apogee height: 797 km
right ascension of ascending node: 199.3331°
argument of perigee: 128.2918°
revolutions per day: 14.30332535
mean anomaly at epoch: 231.9143°
orbit number at epoch: 24682

The dashed part of the orbit path shows where the satellite is in the earth's shadow,  

DLR